Terminal Aerodrome Forecast
Issued by NWS Sterling, VA

Current Version | Previous Version | Graphics & Text | Print | Product List | Glossary On
Versions: 1 2 3 4 5 6 7 8 9 10 11 12 13 14 15
000
FTUS41 KLWX 291137
TAFMRB
TAF
KMRB 291137Z 2912/3012 00000KT 5SM BR SCT060
     FM291300 VRB03KT P6SM SCT250
     FM292200 18005KT P6SM SCT050
     FM300300 20004KT P6SM SCT250
     FM301000 00000KT 6SM BR FEW250=

USA.gov is the U.S. government's official web portal to all federal, state and local government web resources and services.